Other Public Products
Issued by NWS Grand Forks, ND

Home | Current Version | Previous Version | Graphics & Text | Print | Product List | Glossary On
Versions: 1 2 3 4 5 6 7 8 9 10 11 12 13 14 15 16 17 18 19 20 21 22 23 24 25 26 27 28 29 30 31 32 33 34 35 36 37 38 39 40 41 42 43 44 45 46 47 48 49 50
000
FPUS83 KFGF 202031
OPUFGF
PRAIRIE TO PINES WEATHER ROUNDUP
NATIONAL WEATHER SERVICE EASTERN NORTH DAKOTA/GRAND FORKS ND
300 PM CDT MON APR 20 2015

 **SATELLITE DATA USED TO AUGMENT SKY COVER AT AUTOMATED STATIONS**
 *****  WEATHER ACROSS EASTERN NORTH DAKOTA  *****

CITY           SKY/WX    TMP DP  RH WIND       PRES   REMARKS
GRAND FORKS    LGT SNOW  36  32  87 NW23G35   29.60R VSB 1
GRAND FORKS AF LGT SNOW  36  32  87 N23G33    29.60R FOG
GRAND CITY NWS   N/A     32 N/A N/A N30         N/A  WCI  18
BUXTON           N/A     37  35  92 CALM        N/A
DEVILS LAKE    CLOUDY    39  27  60 NW29G38   29.65R
FARGO          LGT SNOW  37  33  85 NW25G38   29.60S FOG
WAHPETON ARPT  CLOUDY    36  32  87 NW18G30   29.62R
$$

 *****  WEATHER ACROSS CENTRAL AND WESTERN NORTH DAKOTA  *****

CITY           SKY/WX    TMP DP  RH WIND       PRES   REMARKS
JAMESTOWN      CLOUDY    42  25  50 NW30G37   29.65F
BISMARCK       SUNNY     52   2  13 NW29G48   29.75F
MINOT          SUNNY     50   8  18 NW28G45   29.75F
MINOT AFB      SUNNY     49  10  21 NW33      29.75S
GARRISON         N/A     51   9  18 N35G48    29.75F
WILLISTON      MOSUNNY   53  13  20 N23G35    29.86F
DICKINSON      MOSUNNY   49  12  22 NW24G38   29.81F
HETTINGER      PTSUNNY   51  13  21 NW29G38   29.84F
$$

 *****  OTHER OBSERVATIONS NORTHEAST NORTH DAKOTA  *****

CITY           SKY/WX    TMP DP  RH WIND       PRES   REMARKS
WALHALLA       LGT RAIN  34  34 100 NW23G37   29.63R WCI  22
LANGDON        FLURRIES  36  30  80 N22G36    29.63R
CAVALIER       LGT RAIN  34  32  93 NW23G36   29.61S WCI  22
GRAFTON        LGT SNOW  34  34 100 NW28G35   29.61S WCI  20
CANDO          CLOUDY    39  27  60 NW29G43   29.67S
FORT TOTTEN      N/A     40  28  63 NW14      29.95
ROLLA          CLOUDY    37  27  65 NW26G41   29.69S
RUGBY          NOT AVBL
 ***** THE ABOVE OBSERVATIONS ARE NON NWS ARE NOT QUALITY
        CONTROLLED AND MAY MIS-REPORT RAIN FOR SNOW...
$$

 *****  OTHER OBSERVATIONS SOUTHEAST NORTH DAKOTA *****

CITY           SKY/WX    TMP DP  RH WIND       PRES   REMARKS
COOPERSTOWN    NOT AVBL
VALLEY CITY    CLOUDY    39  28  65 NW30G39   29.63S
OAKES            N/A     43  27  52 NW32G39   29.65F
GWINNER        CLOUDY    43  30  61 NW26G38   29.65S
BUFFALO        NOT AVBL
WYNDMERE         N/A     39  30  70 NW20        N/A
 ***** THE ABOVE OBSERVATIONS ARE NON NWS ARE NOT QUALITY
       CONTROLLED AND MAY MIS-REPORT RAIN FOR SNOW...
$$

  *****  WEATHER ACROSS NORTHERN MINNESOTA  *****

CITY           SKY/WX    TMP DP  RH WIND       PRES   REMARKS
FLAG ISLAND    CLOUDY    36  30  80 NW26G32   29.39S
WARROAD        FLURRIES  36  30  80 NW21G32   29.44S
ROSEAU         PTSUNNY   36  30  80 NW25G32   29.46S HAZE
HALLOCK        LGT SNOW  36  32  87 NW24G35   29.56S
THF RVR FALLS  CLOUDY    34  30  86 NW26      29.53R WCI  21
HALSTAD          N/A     38  34  86 NW29        N/A
FOSSTON        LGT SNOW  34  27  75 NW22G33   29.52S WCI  22
BAUDETTE       LGT SNOW  35  31  85 NW17G26   29.40S FOG     WCI  25
WASKISH        FLURRIES  34  28  80 W16G22    29.43S WCI  23
CROOKSTON      LGT SNOW  36  34  93 NW25G36   29.57S
$$
  *****  WEATHER ACROSS CENTRAL AND WEST MINNESOTA  *****

CITY           SKY/WX    TMP DP  RH WIND       PRES   REMARKS
BEMIDJI        FLURRIES  32  28  85 W18G25    29.46S WCI  21
PARK RAPIDS    LGT RAIN  41  27  57 NW24G31   29.48S
WADENA         LGT RAIN  36  28  75 NW20G31   29.51R
DETROIT LAKES  LGT RAIN  34  32  93 NW21G32   29.55S WCI  22
MOORHEAD       LGT RAIN  36  34  93 NW21G30   29.60S
FERGUS FALLS   MOSUNNY   36  36 100 NW24G35   29.60S
ELBOW LAKE     LGT SNOW  35  33  93 NW23G32   29.58S WCI  23
MORRIS MN      PTSUNNY   39  36  87 NW25G32   29.59F
STAPLES        CLOUDY    37  27  65 W21G30    29.49F
WHEATON        MOSUNNY   36  30  80 NW24G35   29.64S
$$
  *****  WEATHER ELSEWHERE ACROSS MINNESOTA  *****

CITY           SKY/WX    TMP DP  RH WIND       PRES   REMARKS
DULUTH         CLOUDY    36  27  69 W25G32    29.36R
INTRNTL FALLS  CLOUDY    33  27  78 W12G23    29.36F WCI  24
ELY            CLOUDY    32  27  80 NW14G24   29.32S WCI  22
CLOQUET        CLOUDY    37  27  65 W17G24    29.39R
BRAINERD       CLOUDY    37  24  59 W22       29.48F
HIBBING        CLOUDY    33  25  72 NW12G21   29.38S WCI  24
ALEXANDRIA     CLOUDY    40  28  62 NW25G31   29.55F
SAINT CLOUD    CLOUDY    38  25  59 W21G30    29.53R
MINNEAPOLIS    CLOUDY    42  26  53 W18G29    29.51F
$$

  *****  WEATHER ACROSS SOUTH DAKOTA  *****

CITY           SKY/WX    TMP DP  RH WIND       PRES   REMARKS
SIOUX FALLS    MOSUNNY   53  19  26 NW32G41   29.68S
BROOKINGS      CLOUDY    45  27  49 NW28G36   29.67F
WATERTOWN      CLOUDY    42  26  53 NW24G38   29.66F
HURON          SUNNY     54   7  15 NW33G43   29.70F
SISSETON         N/A     39  29  67 NW25G31   29.64R
ABERDEEN       PTSUNNY   50  25  37 NW28G37   29.71S
MITCHELL       SUNNY     56   1  10 NW38G51   29.73S
PIERRE         SUNNY     55   1  11 NW30G44   29.78F
MOBRIDGE       SUNNY     55   3  12 NW29G41   29.73F
RAPID CITY     MOSUNNY   53  20  27 NW22G36   29.86F
$$

  *****  SOME WEATHER IN NEARBY STATES *****

CITY           SKY/WX    TMP DP  RH WIND       PRES   REMARKS
GLASGOW MT     MOSUNNY   56  15  20 NW8G20    29.89F
GREAT FALLS MT MOSUNNY   62  22  21 NW10      29.89F
CHEYENNE WY    SUNNY     45  20  36 NW23G33   29.94F
SCOTTSBLUFF NE CLOUDY    51  27  39 NW15G25   29.91F
OMAHA NE       MOSUNNY   57  18  21 W30G40    29.75F
DES MOINES IA  PTSUNNY   56  26  31 W29G38    29.68S
DAVENPORT IA   CLOUDY    47  30  51 NW36G47   29.60R
CHICAGO IL     DRIZZLE   46  37  71 W20G30    29.49R
EAU CLAIRE WI  CLOUDY    40  28  62 W15G26    29.45R
LA CROSSE WI   CLOUDY    44  30  57 NW17G25   29.50R
$$

  *****  SOME NATIONAL WEATHER *****

CITY           SKY/WX    TMP DP  RH WIND       PRES   REMARKS
LA GUARDIA NY  LGT RAIN  52  51  97 NE9       29.66F VSB 1/4
RALEIGH NC     CLOUDY    75  63  64 SW17G23   29.66F THUNDER
ATLANTA GA     MOSUNNY   77  55  46 SW15G26   29.70F
NEW ORLEANS LA PTSUNNY   77  56  48 N15G21    29.85S
OKLAHOMA CITY  MOSUNNY   64  31  28 N13       30.00F
ALBUQUERQUE NM LGT RAIN  60  35  39 N16G30    29.96S
SALT LAKE CITY MOSUNNY   66  23  19 NW8       29.92F
LOS ANGELES CA MOSUNNY   62  50  64 W10       29.90F
BOISE ID       SUNNY     69  31  24 VRB3      29.91F
SEATTLE WA     MOSUNNY   66  47  50 NW7       29.93F
$$

*** WEATHER ACROSS MANITOBA...SASKATCHEWAN AND ONTARIO ***
                ***ONTARIO***

CITY           SKY/WX    TMP DP  RH WIND       PRES   REMARKS
GERALDTON      LGT RAIN  36  34  93 N9        29.11  FOG
THUNDER BAY    LGT RAIN  37  36  93 W15G23    29.18S
SIOUX LOOKOUT  LGT RAIN  36  34  93 NW9       29.26S
TORONTO        LGT RAIN  55  54  94 SE7       29.36F
BIG TROUT LK   LGT SNOW  30  28  93 NE17G28   29.50F VSB 1   WCI  18
PICKLE LAKE    LGT SNOW  32  30  93 NE13G18   29.27F WCI  22
DRYDEN         MIX PCPN  34  34 100 W10       29.28F
KENORA         LGT SNOW  36  34  93 N15G25    29.35S FOG
$$
                *** MANITOBA***

CITY           SKY/WX    TMP DP  RH WIND       PRES   REMARKS
BRANDON        PTSUNNY   41  27  56 N32G40    29.72S
DAUPHIN        CLOUDY    39  28  65 N17G25    29.76S
ISLAND LAKE    LGT SNOW  32  28  86 N16G31    29.63F WCI  21
PILOT MOUND      N/A     34  28  80 N21G28      N/A  WCI  22
THE PAS        MOSUNNY   43  27  52 NE9G21    29.88S
THOMPSON       PTSUNNY   36  28  75 NE17G26   29.91S
WINNIPEG       CLOUDY    36  28  75 NW30G37   29.58S
LYNN LAKE      SUNNY     43   7  22 VRB9      29.95F
CHURCHILL      MOSUNNY   27  19  74 NE9       30.11S WCI  17
GILLAM         LGT SNOW  32  27  80 NE21G28   29.92S WCI  20
$$
                ***SASKATCHEWAN***

CITY           SKY/WX    TMP DP  RH WIND       PRES   REMARKS
ESTEVAN        MOSUNNY   48   5  17 N21G32    29.83F
KINDERSLEY     MOSUNNY   59  23  25 W8G24     29.81F
LLOYDMINSTER   MOSUNNY   61  19  20 NW13G20   29.80F
PRINCE ALBERT  CLOUDY    45  23  42 SE13      29.89F
REGINA         MOSUNNY   50  18  27 N15G23    29.88F
YORKTON        SUNNY     48  10  21 NW21G30   29.81F


USA.gov is the U.S. government's official web portal to all federal, state and local government web resources and services.